Location: Austin
(30.3000°N, 97.7500°W)
Time: 01:11:30
(UTC-05:00)

Cosmos 1464 Rocket - Pass Details

Date: 15 May 2024
Orbit: 953 x 1000 km, 82.9° (Epoch: 19 May)

Event Time Altitude Azimuth Distance (km) Brightness Sun altitude
Rises 22:10:23 0° 359° (N) 3,705 7.6 -21.5°
Reaches altitude 10° 22:12:58 10° 3° (N) 2,748 6.8 -21.9°
Maximum altitude 22:19:11 61° 83° (E) 1,105 4.0 -22.9°
Enters shadow 22:20:40 48° 133° (SE) 1,256 4.1 -23.2°
